Hereford, TX

9:41 AM CST on February 07, 2016 (GMT -0600)
Hereford Municipal

Weather History for KHRX - May, 2013

Change the Weather History Date:

Friday, May 17, 2013

  Actual Average (KAMA) Record (KAMA)
Temperature  
Mean Temperature 74 °F 66 °F  
Max Temperature 98 °F 80 °F 100 °F (1927)
Min Temperature 51 °F 52 °F 38 °F (1945)
Degree Days  
Heating Degree Days 0 2  
Month to date heating degree days 62  
Since 1 July heating degree days 4150  
Cooling Degree Days 9 3  
Month to date cooling degree days 38  
Year to date cooling degree days 59  
Growing Degree Days 24 (Base 50)    
Moisture  
Dew Point 40 °F    
Average Humidity 41    
Maximum Humidity 87    
Minimum Humidity 5    
Precipitation  
Precipitation 0.00 in 0.07 in 1.60 in (1914)
Month to date precipitation 1.00  
Year to date precipitation 5.07  
Snow  
Snow 0.00 in 0.00 in T in (2001)
Month to date snowfall 0.2  
Since 1 July snowfall 17.8  
Snow Depth -    
Sea Level Pressure  
Sea Level Pressure 29.88 in    
Wind  
Wind Speed 10 mph (South)    
Max Wind Speed 17 mph    
Max Gust Speed 22 mph    
Visibility 10 miles    
Events      
T = Trace of Precipitation, MM = Missing Value Source: NWS Daily Summary

Daily Weather History Graph

Daily Weather History Graph

Search for Another Location

Airport or City:

Trip Planner

Search our weather history database for the weather conditions in past years. The results will help you decide how hot, cold, wet, or windy it might be!

Date:

Astronomy

May. 17, 2013 Rise Set
Actual Time 6:44 AM CDT 8:47 PM CDT
Civil Twilight 6:16 AM CDT 9:15 PM CDT
Nautical Twilight 5:41 AM CDT 9:50 PM CDT
Astronomical Twilight 5:05 AM CDT 10:27 PM CDT
Moon 1:12 PM CDT (5/17) 1:47 AM CDT (5/17)
Length of Visible Light 14h 59m
Length of Day
14h 03m
Waxing Crescent, 45% of the Moon is Illuminated
May 17
Waxing Crescent
May 17
First Quarter
May 24
Full
May 31
Last Quarter
Jun 8
New

Hourly Weather History & Observations

Time (CDT) Temp. Dew Point Humidity Pressure Visibility Wind Dir Wind Speed Gust Speed Precip Events Conditions
12:15 AM 68.4 °F 51.8 °F 55% 29.87 in 10.0 mi SE 12.7 mph 18.4 mph N/A   Clear
12:35 AM 67.5 °F 51.8 °F 57% 29.86 in 10.0 mi SE 12.7 mph - N/A   Clear
12:55 AM 67.1 °F 51.8 °F 58% 29.86 in 10.0 mi SSE 16.1 mph - N/A   Clear
1:15 AM 67.3 °F 52.7 °F 59% 29.86 in 10.0 mi SSE 17.3 mph 20.7 mph N/A   Clear
1:35 AM 66.4 °F 52.7 °F 61% 29.87 in 10.0 mi SSE 13.8 mph 21.9 mph N/A   Clear
1:55 AM 65.1 °F 53.1 °F 65% 29.87 in 10.0 mi SSE 15.0 mph 18.4 mph N/A   Clear
2:15 AM 64.4 °F 53.2 °F 67% 29.87 in 10.0 mi SSE 15.0 mph 18.4 mph N/A   Clear
2:35 AM 63.9 °F 53.8 °F 70% 29.87 in 10.0 mi SSE 15.0 mph - N/A   Clear
2:55 AM 63.1 °F 53.8 °F 71% 29.86 in 10.0 mi SSE 10.4 mph 16.1 mph N/A   Clear
3:15 AM 63.0 °F 54.1 °F 73% 29.86 in 10.0 mi South 9.2 mph - N/A   Clear
3:35 AM 61.9 °F 53.8 °F 75% 29.86 in 10.0 mi South 8.1 mph - N/A   Clear
3:55 AM 61.0 °F 53.6 °F 77% 29.86 in 10.0 mi South 8.1 mph - N/A   Clear
4:15 AM 60.1 °F 53.2 °F 78% 29.86 in 10.0 mi South 6.9 mph - N/A   Clear
4:35 AM 59.9 °F 53.8 °F 80% 29.86 in 10.0 mi SW 8.1 mph - N/A   Clear
4:55 AM 59.7 °F 53.6 °F 80% 29.87 in 10.0 mi SW 6.9 mph - N/A   Clear
5:15 AM 57.2 °F 52.2 °F 83% 29.88 in 10.0 mi WSW 4.6 mph - N/A   Clear
5:35 AM 58.1 °F 52.7 °F 82% 29.88 in 10.0 mi SW 6.9 mph - N/A   Clear
5:55 AM 56.1 °F 51.6 °F 85% 29.87 in 10.0 mi SW 10.4 mph - N/A   Clear
6:15 AM 56.5 °F 52.0 °F 85% 29.88 in 10.0 mi West 5.8 mph - N/A   Clear
6:35 AM 53.1 °F 48.4 °F 84% 29.88 in 10.0 mi WNW 4.6 mph - N/A   Clear
7:15 AM 51.6 °F 47.8 °F 87% 29.89 in 10.0 mi Calm Calm - N/A   Clear
7:35 AM 55.0 °F 51.3 °F 87% 29.91 in 7.0 mi East 6.9 mph - N/A   Clear
7:55 AM 57.4 °F 53.1 °F 85% 29.93 in 10.0 mi East 4.6 mph - N/A   Clear
8:15 AM 59.9 °F 54.9 °F 83% 29.93 in 10.0 mi East 5.8 mph - N/A   Clear
8:35 AM 61.9 °F 55.0 °F 78% 29.93 in 10.0 mi SE 8.1 mph - N/A   Clear
8:55 AM 63.5 °F 55.4 °F 75% 29.92 in 10.0 mi SE 5.8 mph - N/A   Clear
9:15 AM 66.2 °F 56.3 °F 70% 29.93 in 10.0 mi SSE 5.8 mph - N/A   Clear
9:35 AM 69.3 °F 55.4 °F 61% 29.93 in 10.0 mi South 4.6 mph - N/A   Clear
9:55 AM 71.2 °F 53.2 °F 53% 29.93 in 10.0 mi SW 5.8 mph - N/A   Clear
10:15 AM 73.4 °F 52.0 °F 47% 29.94 in 10.0 mi West 10.4 mph - N/A   Clear
10:35 AM 75.0 °F 50.4 °F 42% 29.94 in 10.0 mi West 5.8 mph - N/A   Clear
10:55 AM 77.5 °F 46.6 °F 33% 29.93 in 10.0 mi WNW 4.6 mph - N/A   Clear
11:15 AM 80.6 °F 44.2 °F 28% 29.93 in 10.0 mi Calm Calm - N/A   Clear
11:35 AM 82.9 °F 42.1 °F 24% 29.93 in 10.0 mi NW 5.8 mph - N/A   Clear
11:55 AM 85.3 °F 39.7 °F 20% 29.93 in 10.0 mi WNW 8.1 mph - N/A   Clear
12:15 PM 87.8 °F 34.9 °F 15% 29.93 in 10.0 mi NNW 9.2 mph - N/A   Clear
12:35 PM 90.1 °F 29.8 °F 12% 29.92 in 10.0 mi NW 5.8 mph - N/A   Clear
12:55 PM 91.6 °F 25.9 °F 9% 29.91 in 10.0 mi NNE 4.6 mph - N/A   Clear
1:15 PM 93.2 °F 22.1 °F 8% 29.91 in 10.0 mi WSW 4.6 mph - N/A   Clear
1:35 PM 93.4 °F 22.1 °F 8% 29.91 in 10.0 mi Calm Calm - N/A   Clear
2:15 PM 95.5 °F 17.4 °F 6% 29.90 in 10.0 mi SW 4.6 mph - N/A   Clear
2:35 PM 95.9 °F 19.4 °F 6% 29.89 in 10.0 mi WNW 8.1 mph - N/A   Clear
2:55 PM 96.6 °F 18.7 °F 6% 29.89 in 10.0 mi Calm Calm - N/A   Clear
3:15 PM 96.8 °F 18.9 °F 6% 29.88 in 10.0 mi SW 11.5 mph 17.3 mph N/A   Clear
3:35 PM 96.4 °F 19.0 °F 6% 29.87 in 10.0 mi SSE 6.9 mph - N/A   Clear
3:55 PM 97.5 °F 17.6 °F 6% 29.86 in 10.0 mi West 10.4 mph 18.4 mph N/A   Clear
4:15 PM 96.6 °F 17.6 °F 6% 29.85 in 10.0 mi Calm Calm - N/A   Clear
4:35 PM 97.9 °F 17.4 °F 5% 29.85 in 10.0 mi North - - N/A   Clear
4:55 PM 97.9 °F 17.8 °F 6% 29.84 in 10.0 mi SSW 13.8 mph 18.4 mph N/A   Clear
5:15 PM 95.7 °F 17.1 °F 6% 29.84 in 10.0 mi SSW 16.1 mph - N/A   Clear
5:35 PM 95.9 °F 16.9 °F 6% 29.84 in 10.0 mi SSW 9.2 mph 17.3 mph N/A   Clear
5:55 PM 97.9 °F 16.5 °F 5% 29.83 in 10.0 mi North - - N/A   Clear
6:15 PM 96.8 °F 16.2 °F 5% 29.83 in 10.0 mi North - - N/A   Clear
6:35 PM 94.8 °F 15.8 °F 6% 29.83 in 10.0 mi North - - N/A   Clear
6:55 PM 95.9 °F 16.9 °F 6% 29.82 in 10.0 mi North - - N/A   Clear
7:15 PM 95.4 °F 18.1 °F 6% 29.82 in 10.0 mi North - - N/A   Clear
7:35 PM 93.9 °F 17.8 °F 6% 29.82 in 10.0 mi SSW 13.8 mph - N/A   Clear
7:55 PM 93.2 °F 21.9 °F 8% 29.83 in 10.0 mi North - - N/A   Clear
8:15 PM 89.8 °F 23.0 °F 9% 29.84 in 7.0 mi North - - N/A   Clear
8:35 PM 86.2 °F 23.9 °F 10% 29.84 in 5.0 mi North - - N/A   Haze
8:55 PM 83.7 °F 23.7 °F 11% 29.84 in 2.5 mi WSW 8.1 mph - N/A   Haze
9:15 PM 82.9 °F 22.8 °F 11% 29.84 in 4.0 mi SSW 5.8 mph - N/A   Haze
9:35 PM 81.5 °F 41.7 °F 24% 29.87 in 10.0 mi SSE 10.4 mph 17.3 mph N/A   Clear
9:55 PM 81.0 °F 52.7 °F 37% 29.87 in 10.0 mi SE 16.1 mph - N/A   Clear
10:15 PM 79.7 °F 54.0 °F 41% 29.88 in 10.0 mi SE 10.4 mph - N/A   Clear
10:35 PM 79.5 °F 55.2 °F 43% 29.88 in 10.0 mi SE 16.1 mph 21.9 mph N/A   Clear
10:55 PM 78.3 °F 55.8 °F 46% 29.89 in 10.0 mi SE 12.7 mph - N/A   Clear
11:15 PM 77.4 °F 56.3 °F 48% 29.89 in 10.0 mi SE 16.1 mph 19.6 mph N/A   Clear
11:35 PM 77.2 °F 57.4 °F 50% 29.90 in 10.0 mi ESE 16.1 mph 21.9 mph N/A   Clear
11:55 PM 76.1 °F 58.5 °F 54% 29.89 in 10.0 mi ESE 16.1 mph 20.7 mph N/A   Clear